EAG5512 ZBAD-RKSI

Flight info

Callsign EAG5512
Flight time 1h 11m
Altitude 35100
Route MUGLO4K MUGLO DCT VAPGU DCT ANRAT DCT LOTGO DCT TANIB/N0455F350 DCT GONAV
Aircraft B738/M-SDE2E3FGHIRWXY/LB1

Departure

Time 2026-04-21 23:00
Airport Beijing Daxing International Airport (ZBAD)

Arrival

Time 2026-04-22 00:11
Airport Incheon International Airport (RKSI)
Time Latitude Longitude Altitude Speed Heading
2026-04-21 22:39 39.50684 116.41740 87 ft 0 kts 332°
2026-04-21 22:50 39.50683 116.41741 87 ft 2 kts 332°
2026-04-21 22:50 39.50660 116.41756 89 ft 4 kts 335°
2026-04-21 22:50 39.50627 116.41773 89 ft 4 kts 346°
2026-04-21 22:51 39.50601 116.41777 85 ft 4 kts 17°
2026-04-21 22:51 39.50589 116.41771 85 ft 4 kts 72°
2026-04-21 22:51 39.50588 116.41766 89 ft 1 kts 82°
2026-04-21 22:54 39.50588 116.41776 85 ft 4 kts 90°
2026-04-21 22:55 39.50561 116.41803 85 ft 7 kts 172°
2026-04-21 22:55 39.50496 116.41777 85 ft 12 kts 216°
2026-04-21 22:55 39.50459 116.41751 85 ft 6 kts 148°
2026-04-21 22:55 39.50399 116.41782 86 ft 12 kts 173°
2026-04-21 22:56 39.50292 116.41799 87 ft 18 kts 174°
2026-04-21 22:56 39.50178 116.41817 86 ft 16 kts 174°
2026-04-21 22:56 39.50088 116.41869 85 ft 15 kts 108°
2026-04-21 22:56 39.50094 116.41987 84 ft 14 kts 83°
2026-04-21 22:57 39.50106 116.42103 86 ft 13 kts 82°
2026-04-21 22:57 39.50115 116.42197 89 ft 8 kts 83°
2026-04-21 22:57 39.50121 116.42269 84 ft 8 kts 84°
2026-04-21 22:57 39.50128 116.42338 87 ft 8 kts 79°
2026-04-21 22:58 39.50136 116.42405 85 ft 7 kts 85°
2026-04-21 22:58 39.50141 116.42469 86 ft 7 kts 84°
2026-04-21 22:58 39.50146 116.42532 90 ft 7 kts 83°
2026-04-21 22:58 39.50142 116.42594 94 ft 7 kts 99°
2026-04-21 22:59 39.50114 116.42668 95 ft 13 kts 146°
2026-04-21 22:59 39.49909 116.42704 96 ft 69 kts 173°
2026-04-21 22:59 39.49120 116.42828 94 ft 156 kts 173°
2026-04-21 22:59 39.47859 116.43024 550 ft 198 kts 173°
2026-04-21 23:00 39.46446 116.43253 1577 ft 204 kts 166°
2026-04-21 23:00 39.45274 116.44165 2728 ft 204 kts 139°
2026-04-21 23:00 39.44120 116.45287 3467 ft 211 kts 146°
2026-04-21 23:00 39.43066 116.46682 3835 ft 226 kts 114°
2026-04-21 23:01 39.42826 116.48779 3956 ft 256 kts 82°
2026-04-21 23:01 39.43126 116.51151 3984 ft 272 kts 80°
2026-04-21 23:01 39.43448 116.53595 4260 ft 279 kts 81°
2026-04-21 23:01 39.43754 116.56072 4842 ft 279 kts 81°
2026-04-21 23:02 39.43869 116.58562 4992 ft 280 kts 101°
2026-04-21 23:02 39.43319 116.60995 5642 ft 283 kts 109°
2026-04-21 23:02 39.42676 116.63412 6452 ft 285 kts 109°
2026-04-21 23:02 39.42025 116.65867 7184 ft 290 kts 109°
2026-04-21 23:03 39.41385 116.68317 7935 ft 293 kts 108°
2026-04-21 23:03 39.40736 116.70837 8673 ft 297 kts 108°
2026-04-21 23:03 39.40087 116.73385 9416 ft 300 kts 107°
2026-04-21 23:03 39.39434 116.75966 10152 ft 303 kts 107°
2026-04-21 23:04 39.38768 116.78620 10526 ft 321 kts 107°
2026-04-21 23:04 39.38060 116.81456 10715 ft 342 kts 107°
2026-04-21 23:04 39.37314 116.84444 11143 ft 354 kts 107°
2026-04-21 23:04 39.36554 116.87487 11820 ft 357 kts 107°
2026-04-21 23:05 39.35789 116.90548 12605 ft 358 kts 107°
2026-04-21 23:05 39.35025 116.93617 13330 ft 361 kts 107°
2026-04-21 23:05 39.34248 116.96729 13932 ft 368 kts 107°
2026-04-21 23:05 39.33456 116.99907 14585 ft 373 kts 107°
2026-04-21 23:06 39.32655 117.03112 15256 ft 377 kts 107°
2026-04-21 23:06 39.31837 117.06365 15888 ft 383 kts 107°
2026-04-21 23:06 39.31007 117.09653 16545 ft 387 kts 108°
2026-04-21 23:06 39.30174 117.12977 17128 ft 393 kts 108°
2026-04-21 23:07 39.29323 117.16352 17731 ft 397 kts 108°
2026-04-21 23:07 39.28468 117.19755 18259 ft 402 kts 108°
2026-04-21 23:07 39.27595 117.23208 18818 ft 407 kts 108°
2026-04-21 23:07 39.26710 117.26702 19381 ft 412 kts 108°
2026-04-21 23:08 39.25814 117.30237 19922 ft 416 kts 108°
2026-04-21 23:08 39.24905 117.33814 20403 ft 422 kts 108°
2026-04-21 23:08 39.23985 117.37438 20900 ft 427 kts 108°
2026-04-21 23:08 39.23053 117.41099 21398 ft 432 kts 108°
2026-04-21 23:09 39.22126 117.44746 21876 ft 435 kts 109°
2026-04-21 23:09 39.21162 117.48525 22301 ft 441 kts 109°
2026-04-21 23:09 39.20211 117.52246 22734 ft 445 kts 109°
2026-04-21 23:09 39.19234 117.56052 23169 ft 449 kts 109°
2026-04-21 23:10 39.18242 117.59898 23632 ft 454 kts 109°
2026-04-21 23:10 39.17258 117.63778 24083 ft 458 kts 109°
2026-04-21 23:10 39.16256 117.67691 24443 ft 462 kts 109°
2026-04-21 23:10 39.15237 117.71641 24810 ft 466 kts 109°
2026-04-21 23:11 39.14208 117.75620 25215 ft 469 kts 110°
2026-04-21 23:11 39.13172 117.79623 25599 ft 473 kts 110°
2026-04-21 23:11 39.12125 117.83669 25981 ft 475 kts 110°
2026-04-21 23:11 39.11075 117.87723 26344 ft 479 kts 110°
2026-04-21 23:12 39.10017 117.91801 26659 ft 483 kts 110°
2026-04-21 23:12 39.08947 117.95923 27015 ft 486 kts 110°
2026-04-21 23:12 39.07886 117.99999 27351 ft 489 kts 111°
2026-04-21 23:12 39.06831 118.04176 27664 ft 493 kts 108°
2026-04-21 23:13 39.06016 118.08481 27951 ft 498 kts 104°
2026-04-21 23:13 39.05323 118.12862 28279 ft 501 kts 103°
2026-04-21 23:13 39.04673 118.17277 28578 ft 503 kts 103°
2026-04-21 23:13 39.04025 118.21724 28858 ft 507 kts 103°
2026-04-21 23:14 39.03361 118.26182 29143 ft 509 kts 103°
2026-04-21 23:14 39.02672 118.30664 29427 ft 512 kts 104°
2026-04-21 23:14 39.01965 118.35163 29684 ft 515 kts 104°
2026-04-21 23:14 39.01242 118.39691 29934 ft 517 kts 104°
2026-04-21 23:15 39.00512 118.44223 30252 ft 518 kts 104°
2026-04-21 23:15 38.99779 118.48755 30600 ft 518 kts 104°
2026-04-21 23:15 38.99052 118.53237 30941 ft 518 kts 105°
2026-04-21 23:15 38.98318 118.57764 31289 ft 517 kts 105°
2026-04-21 23:16 38.97580 118.62303 31619 ft 517 kts 105°
2026-04-21 23:16 38.96843 118.66832 31917 ft 518 kts 105°
2026-04-21 23:16 38.96100 118.71380 32227 ft 518 kts 105°
2026-04-21 23:16 38.95358 118.75912 32534 ft 518 kts 105°
2026-04-21 23:17 38.94614 118.80444 32821 ft 519 kts 105°
2026-04-21 23:17 38.93867 118.84987 33112 ft 519 kts 105°
2026-04-21 23:17 38.93129 118.89470 33384 ft 520 kts 105°
2026-04-21 23:17 38.92377 118.94009 33673 ft 520 kts 105°
2026-04-21 23:18 38.91624 118.98558 33917 ft 521 kts 105°
2026-04-21 23:18 38.90865 119.03123 34131 ft 523 kts 105°
2026-04-21 23:18 38.90102 119.07701 34298 ft 525 kts 106°
2026-04-21 23:18 38.89335 119.12298 34467 ft 528 kts 106°
2026-04-21 23:19 38.88562 119.16913 34648 ft 529 kts 106°
2026-04-21 23:19 38.87789 119.21523 34897 ft 529 kts 106°
2026-04-21 23:19 38.87011 119.26148 35029 ft 531 kts 106°
2026-04-21 23:19 38.86225 119.30800 35020 ft 536 kts 106°
2026-04-21 23:20 38.84629 119.40212 35028 ft 543 kts 106°
2026-04-21 23:20 38.83024 119.49649 35026 ft 546 kts 106°
2026-04-21 23:21 38.81394 119.59182 35023 ft 547 kts 107°
2026-04-21 23:21 38.79754 119.68727 35012 ft 548 kts 107°
2026-04-21 23:22 38.77886 119.78137 35004 ft 539 kts 118°
2026-04-21 23:22 38.76238 119.82390 35025 ft 528 kts 129°
2026-04-21 23:22 38.74142 119.86190 35026 ft 517 kts 138°
2026-04-21 23:23 38.71666 119.89445 35009 ft 503 kts 149°
2026-04-21 23:23 38.68972 119.92277 35030 ft 501 kts 150°
2026-04-21 23:23 38.63875 119.98489 35018 ft 518 kts 137°
2026-04-21 23:24 38.59523 120.05890 35017 ft 521 kts 136°
2026-04-21 23:24 38.55232 120.13275 35011 ft 528 kts 129°
2026-04-21 23:25 38.52257 120.21991 35011 ft 545 kts 109°
2026-04-21 23:25 38.50731 120.31514 35017 ft 548 kts 105°
2026-04-21 23:26 38.49316 120.41075 35022 ft 548 kts 105°
2026-04-21 23:26 38.47817 120.50602 35027 ft 547 kts 106°
2026-04-21 23:27 38.46256 120.60142 35037 ft 551 kts 106°
2026-04-21 23:27 38.44669 120.69752 35028 ft 556 kts 107°
2026-04-21 23:28 38.43072 120.79438 35032 ft 559 kts 106°
2026-04-21 23:28 38.41475 120.89087 35025 ft 560 kts 107°
2026-04-21 23:29 38.39856 120.98812 35024 ft 560 kts 107°
2026-04-21 23:29 38.38169 121.08504 35024 ft 557 kts 111°
2026-04-21 23:30 38.35361 121.17550 35032 ft 547 kts 121°
2026-04-21 23:30 38.32224 121.26361 35026 ft 546 kts 121°
2026-04-21 23:31 38.29108 121.35189 35026 ft 546 kts 121°
2026-04-21 23:31 38.26036 121.44048 35027 ft 547 kts 121°
2026-04-21 23:32 38.22976 121.52913 35027 ft 548 kts 121°
2026-04-21 23:32 38.19905 121.61780 35027 ft 548 kts 121°
2026-04-21 23:33 38.16840 121.70588 35022 ft 548 kts 121°
2026-04-21 23:33 38.13743 121.79454 35029 ft 549 kts 121°
2026-04-21 23:34 38.10632 121.88333 35027 ft 550 kts 122°
2026-04-21 23:34 38.07513 121.97211 35030 ft 550 kts 122°
2026-04-21 23:35 38.04915 122.04589 35028 ft 551 kts 122°
2026-04-21 23:35 38.01272 122.14904 35028 ft 551 kts 122°
2026-04-21 23:36 37.98658 122.22284 35026 ft 551 kts 122°
2026-04-21 23:36 37.95508 122.31148 35031 ft 550 kts 122°
2026-04-21 23:37 37.92351 122.40001 35027 ft 550 kts 122°
2026-04-21 23:37 37.89197 122.48828 35032 ft 550 kts 122°
2026-04-21 23:38 37.86035 122.57648 35025 ft 550 kts 122°
2026-04-21 23:38 37.82868 122.66453 35037 ft 549 kts 122°
2026-04-21 23:39 37.79699 122.75245 35036 ft 549 kts 122°
2026-04-21 23:39 37.76524 122.84025 35041 ft 549 kts 122°
2026-04-21 23:40 37.73365 122.92735 35033 ft 548 kts 122°
2026-04-21 23:40 37.70178 123.01499 35045 ft 548 kts 122°
2026-04-21 23:41 37.66991 123.10234 35047 ft 548 kts 122°
2026-04-21 23:41 37.63792 123.18978 35056 ft 548 kts 122°
2026-04-21 23:42 37.60589 123.27707 35055 ft 549 kts 122°
2026-04-21 23:42 37.57374 123.36445 35051 ft 549 kts 122°
2026-04-21 23:43 37.54152 123.45178 35051 ft 549 kts 122°
2026-04-21 23:43 37.50924 123.53899 34963 ft 551 kts 122°
2026-04-21 23:44 37.49298 123.58281 34407 ft 551 kts 122°
2026-04-21 23:44 37.47703 123.62585 33643 ft 549 kts 122°
2026-04-21 23:44 37.46096 123.66911 32866 ft 541 kts 122°
2026-04-21 23:44 37.44497 123.71211 32130 ft 541 kts 122°
2026-04-21 23:45 37.42897 123.75497 31338 ft 542 kts 122°
2026-04-21 23:45 37.39707 123.84033 30132 ft 534 kts 121°
2026-04-21 23:45 37.38135 123.88237 29567 ft 529 kts 121°
2026-04-21 23:46 37.36574 123.92402 29004 ft 524 kts 121°
2026-04-21 23:46 37.35026 123.96526 28442 ft 519 kts 121°
2026-04-21 23:46 37.33488 124.00614 27877 ft 514 kts 121°
2026-04-21 23:46 37.31964 124.04662 27322 ft 509 kts 121°
2026-04-21 23:47 37.30456 124.08664 26770 ft 503 kts 121°
2026-04-21 23:47 37.28965 124.12608 26220 ft 498 kts 121°
2026-04-21 23:47 37.27486 124.16520 25671 ft 493 kts 121°
2026-04-21 23:47 37.26019 124.20399 25132 ft 488 kts 121°
2026-04-21 23:48 37.24587 124.24178 24578 ft 483 kts 121°
2026-04-21 23:48 37.23150 124.27967 24056 ft 478 kts 121°
2026-04-21 23:48 37.21722 124.31727 23516 ft 474 kts 121°
2026-04-21 23:48 37.20310 124.35443 22992 ft 469 kts 120°
2026-04-21 23:49 37.19192 124.39294 22440 ft 473 kts 106°
2026-04-21 23:49 37.18842 124.43380 21996 ft 471 kts 90°
2026-04-21 23:49 37.19205 124.47406 21754 ft 460 kts 76°
2026-04-21 23:49 37.20043 124.51233 21514 ft 450 kts 73°
2026-04-21 23:50 37.20927 124.54989 21258 ft 448 kts 72°
2026-04-21 23:50 37.21811 124.58711 21027 ft 452 kts 73°
2026-04-21 23:50 37.22698 124.62488 20605 ft 450 kts 73°
2026-04-21 23:50 37.23568 124.66248 20099 ft 446 kts 73°
2026-04-21 23:51 37.24416 124.69977 19594 ft 442 kts 73°
2026-04-21 23:51 37.25245 124.73664 19063 ft 437 kts 73°
2026-04-21 23:51 37.26064 124.77321 18565 ft 433 kts 73°
2026-04-21 23:51 37.26875 124.80948 18044 ft 428 kts 73°
2026-04-21 23:52 37.27676 124.84543 17529 ft 424 kts 73°
2026-04-21 23:52 37.28465 124.88089 17020 ft 419 kts 73°
2026-04-21 23:52 37.29235 124.91556 16522 ft 415 kts 73°
2026-04-21 23:52 37.30006 124.95030 16021 ft 410 kts 73°
2026-04-21 23:53 37.30766 124.98459 15526 ft 406 kts 73°
2026-04-21 23:53 37.31519 125.01860 15032 ft 401 kts 73°
2026-04-21 23:53 37.32257 125.05210 14555 ft 396 kts 73°
2026-04-21 23:53 37.32989 125.08529 14065 ft 391 kts 73°
2026-04-21 23:54 37.33710 125.11800 13600 ft 387 kts 73°
2026-04-21 23:54 37.34424 125.15043 13140 ft 382 kts 74°
2026-04-21 23:54 37.35121 125.18254 12660 ft 379 kts 74°
2026-04-21 23:54 37.35810 125.21393 12189 ft 375 kts 74°
2026-04-21 23:55 37.36501 125.24535 11715 ft 370 kts 74°
2026-04-21 23:55 37.37182 125.27638 11269 ft 366 kts 74°
2026-04-21 23:55 37.37853 125.30712 10834 ft 362 kts 74°
2026-04-21 23:55 37.38510 125.33715 10711 ft 349 kts 74°
2026-04-21 23:56 37.39143 125.36619 10566 ft 338 kts 74°
2026-04-21 23:56 37.39754 125.39423 10437 ft 328 kts 74°
2026-04-21 23:56 37.40348 125.42149 10283 ft 318 kts 75°
2026-04-21 23:56 37.40923 125.44792 10157 ft 309 kts 75°
2026-04-21 23:57 37.41482 125.47367 10032 ft 301 kts 75°
2026-04-21 23:57 37.42026 125.49878 9824 ft 295 kts 75°
2026-04-21 23:57 37.42564 125.52363 9550 ft 293 kts 75°
2026-04-21 23:57 37.43097 125.54834 9286 ft 292 kts 75°
2026-04-21 23:58 37.43630 125.57293 9014 ft 291 kts 75°
2026-04-21 23:58 37.44158 125.59741 8738 ft 289 kts 75°
2026-04-21 23:58 37.44681 125.62178 8463 ft 288 kts 75°
2026-04-21 23:58 37.45195 125.64573 8189 ft 286 kts 75°
2026-04-21 23:59 37.45712 125.66979 7931 ft 284 kts 75°
2026-04-21 23:59 37.46226 125.69375 7664 ft 283 kts 75°
2026-04-21 23:59 37.46740 125.71769 7384 ft 282 kts 75°
2026-04-21 23:59 37.47249 125.74142 7121 ft 280 kts 75°
2026-04-22 00:00 37.47755 125.76508 6869 ft 279 kts 75°
2026-04-22 00:00 37.48257 125.78859 6600 ft 278 kts 75°
2026-04-22 00:00 37.48759 125.81208 6340 ft 277 kts 75°
2026-04-22 00:00 37.49260 125.83553 6072 ft 278 kts 75°
2026-04-22 00:01 37.49760 125.85903 5788 ft 278 kts 75°
2026-04-22 00:01 37.50251 125.88222 5656 ft 270 kts 75°
2026-04-22 00:01 37.50738 125.90506 5400 ft 269 kts 75°
2026-04-22 00:01 37.51221 125.92780 5154 ft 268 kts 74°
2026-04-22 00:02 37.51701 125.95040 4894 ft 267 kts 74°
2026-04-22 00:02 37.52180 125.97292 4627 ft 266 kts 74°
2026-04-22 00:02 37.52657 125.99550 4362 ft 267 kts 74°
2026-04-22 00:02 37.53135 126.01810 4092 ft 266 kts 74°
2026-04-22 00:03 37.53604 126.04033 3831 ft 265 kts 74°
2026-04-22 00:03 37.54078 126.06272 3561 ft 264 kts 73°
2026-04-22 00:03 37.54553 126.08521 3292 ft 265 kts 74°
2026-04-22 00:03 37.55025 126.10763 3035 ft 264 kts 73°
2026-04-22 00:04 37.55497 126.13000 2778 ft 264 kts 74°
2026-04-22 00:04 37.55965 126.15221 2601 ft 257 kts 75°
2026-04-22 00:04 37.56409 126.17336 2518 ft 243 kts 76°
2026-04-22 00:04 37.56835 126.19343 2423 ft 230 kts 73°
2026-04-22 00:05 37.57564 126.21066 2338 ft 218 kts 52°
2026-04-22 00:05 37.58451 126.22552 2105 ft 215 kts 54°
2026-04-22 00:05 37.59317 126.24054 1957 ft 207 kts 55°
2026-04-22 00:05 37.60139 126.25491 1879 ft 198 kts 55°
2026-04-22 00:06 37.60812 126.26997 1822 ft 196 kts 82°
2026-04-22 00:06 37.60581 126.28581 1767 ft 180 kts 129°
2026-04-22 00:06 37.59773 126.29731 1689 ft 173 kts 135°
2026-04-22 00:06 37.58934 126.30775 1627 ft 170 kts 140°
2026-04-22 00:07 37.58076 126.31760 1629 ft 162 kts 141°
2026-04-22 00:07 37.57210 126.32650 1611 ft 157 kts 145°
2026-04-22 00:07 37.56352 126.33446 1592 ft 150 kts 146°
2026-04-22 00:07 37.55518 126.34199 1592 ft 146 kts 147°
2026-04-22 00:08 37.54697 126.34931 1621 ft 145 kts 147°
2026-04-22 00:08 37.53887 126.35657 1583 ft 141 kts 147°
2026-04-22 00:08 37.53091 126.36367 1428 ft 142 kts 147°
2026-04-22 00:08 37.52277 126.37094 1245 ft 141 kts 146°
2026-04-22 00:09 37.51497 126.37790 1061 ft 139 kts 145°
2026-04-22 00:09 37.50703 126.38500 879 ft 138 kts 145°
2026-04-22 00:09 37.49926 126.39195 686 ft 139 kts 145°
2026-04-22 00:09 37.49136 126.39895 525 ft 138 kts 145°
2026-04-22 00:10 37.48349 126.40611 309 ft 140 kts 144°
2026-04-22 00:10 37.47556 126.41312 103 ft 138 kts 144°
2026-04-22 00:10 37.46795 126.41987 33 ft 129 kts 143°
2026-04-22 00:10 37.46200 126.42522 32 ft 75 kts 145°
2026-04-22 00:11 37.45903 126.42785 32 ft 44 kts 144°
2026-04-22 00:11 37.45734 126.42935 32 ft 22 kts 144°
2026-04-22 00:11 37.45661 126.43026 31 ft 12 kts 123°
2026-04-22 00:11 37.45620 126.43120 32 ft 13 kts 116°
2026-04-22 00:12 37.45578 126.43231 32 ft 15 kts 115°
2026-04-22 00:12 37.45563 126.43274 32 ft 0 kts 114°
2026-04-22 00:13 37.45559 126.43284 31 ft 5 kts 114°
2026-04-22 00:13 37.45528 126.43361 32 ft 14 kts 123°
2026-04-22 00:13 37.45451 126.43454 31 ft 17 kts 144°
2026-04-22 00:14 37.45369 126.43534 31 ft 13 kts 124°
2026-04-22 00:14 37.45387 126.43629 32 ft 12 kts 54°
2026-04-22 00:14 37.45434 126.43712 32 ft 11 kts 54°
2026-04-22 00:14 37.45437 126.43803 32 ft 11 kts 117°
2026-04-22 00:15 37.45443 126.43892 32 ft 11 kts 58°
2026-04-22 00:15 37.45485 126.43967 32 ft 10 kts 54°
2026-04-22 00:15 37.45471 126.44019 31 ft 7 kts 150°
2026-04-22 00:15 37.45441 126.44043 32 ft 2 kts 145°
2026-04-22 00:16 37.45432 126.44051 31 ft 0 kts 145°